Klamath Falls, OR

10:34 AM PDT on June 27, 2017 (GMT -0700)
Klamath Falls International

Weather History for KLMT - April, 2014

Change the Weather History Date:

Monday, April 28, 2014

  Actual Average Record
Temperature  
Mean Temperature 40 °F 46 °F  
Max Temperature 61 °F 60 °F 77 °F (1992)
Min Temperature 18 °F 33 °F 18 °F (1967)
Degree Days  
Heating Degree Days 25 19  
Month to date heating degree days 568 621  
Since 1 July heating degree days 6065 6283  
Cooling Degree Days 0 0  
Month to date cooling degree days 0 0  
Year to date cooling degree days 0 0  
Moisture  
Dew Point 23 °F    
Average Humidity 67    
Maximum Humidity 96    
Minimum Humidity 20    
Precipitation  
Precipitation 0.00 in 0.06 in 0.92 in (1951)
Month to date precipitation 0.20 1.25  
Year to date precipitation 4.79 6.29  
Sea Level Pressure  
Sea Level Pressure 30.24 in    
Wind  
Wind Speed 3 mph (WNW)    
Max Wind Speed 13 mph    
Max Gust Speed 15 mph    
Visibility 7 miles    
Events Fog    
T = Trace of Precipitation, MM = Missing Value Source: NWS Daily Summary

Daily Weather History Graph

Daily Weather History Graph

Search for Another Location

Airport or City:

Trip Planner

Search our weather history database for the weather conditions in past years. The results will help you decide how hot, cold, wet, or windy it might be!

Date:

Astronomy

Apr. 28, 2014 Rise Set
Actual Time 6:06 AM PDT 8:02 PM PDT
Civil Twilight 5:36 AM PDT 8:33 PM PDT
Nautical Twilight 4:59 AM PDT 9:10 PM PDT
Astronomical Twilight 4:19 AM PDT 9:50 PM PDT
Moon 5:49 AM PDT (4/28) 7:46 PM PDT (4/28)
Length of Visible Light 14h 56m
Length of Day
13h 56m
Waning Crescent, 0% of the Moon is Illuminated
Apr 28
Waning Crescent
Apr 28
New
May 6
First Quarter
May 14
Full
May 21
Last Quarter

Hourly Weather History & Observations

Time (PDT) Temp. Windchill Dew Point Humidity Pressure Visibility Wind Dir Wind Speed Gust Speed Precip Events Conditions
1:53 AM 28.9 °F 21.9 °F 25.0 °F 85% 30.16 in 10.0 mi SSW 6.9 mph - N/A   Clear
3:53 AM 26.1 °F - 23.0 °F 88% 30.18 in 10.0 mi Calm Calm - N/A   Clear
4:53 AM 23.0 °F - 21.0 °F 92% 30.21 in 7.0 mi Calm Calm - N/A   Clear
4:59 AM 24.1 °F - 21.0 °F 88% 30.18 in 2.0 mi Calm Calm - N/A   Partly Cloudy
5:14 AM 21.9 °F - 21.0 °F 96% 30.18 in 5.0 mi Calm Calm - N/A   Partly Cloudy
5:43 AM 21.9 °F - 21.0 °F 96% 30.19 in 0.8 mi Calm Calm - N/A   Clear
5:50 AM 23.0 °F - 19.4 °F 86% 30.19 in 2.0 mi Calm Calm - N/A   Clear
5:53 AM 21.9 °F - 19.9 °F 92% 30.22 in 0.8 mi Calm Calm - N/A   Clear
5:57 AM 21.9 °F 17.2 °F 19.9 °F 92% 30.19 in 0.5 mi SE 3.5 mph - N/A Fog Light Freezing Fog
6:04 AM 21.9 °F 17.2 °F 19.9 °F 92% 30.19 in 0.2 mi ESE 3.5 mph - N/A Fog Light Freezing Fog
6:08 AM 21.0 °F - 19.9 °F 96% 30.20 in 0.5 mi Calm Calm - N/A Fog Light Freezing Fog
6:15 AM 18.0 °F - 16.0 °F 92% 30.20 in 0.2 mi Calm Calm - N/A Fog Light Freezing Fog
6:36 AM 21.0 °F - 19.0 °F 92% 30.21 in 1.2 mi Calm Calm - N/A   Mostly Cloudy
6:40 AM 21.0 °F 16.2 °F 19.9 °F 96% 30.21 in 2.0 mi NNW 3.5 mph - N/A   Scattered Clouds
6:48 AM 21.2 °F - 19.4 °F 93% 30.21 in 7.0 mi Calm Calm - N/A   Partly Cloudy
7:53 AM 32.0 °F - 28.9 °F 88% 30.26 in 10.0 mi Calm Calm - N/A   Clear
8:53 AM 37.9 °F - 30.0 °F 73% 30.26 in 10.0 mi Calm Calm - N/A   Clear
9:53 AM 42.1 °F - 28.9 °F 60% 30.27 in 10.0 mi Calm Calm - N/A   Clear
10:53 AM 45.0 °F - 30.0 °F 56% 30.27 in 10.0 mi Calm Calm - N/A   Partly Cloudy
11:53 AM 48.9 °F - 28.0 °F 44% 30.27 in 10.0 mi Calm Calm - N/A   Clear
12:53 PM 51.1 °F - 21.0 °F 31% 30.27 in 10.0 mi Calm Calm - N/A   Clear
1:53 PM 54.0 °F - 23.0 °F 30% 30.26 in 10.0 mi Variable 3.5 mph - N/A   Clear
2:53 PM 55.9 °F - 18.0 °F 23% 30.26 in 10.0 mi WSW 6.9 mph - N/A   Mostly Cloudy
3:53 PM 59.0 °F - 19.0 °F 21% 30.25 in 10.0 mi Variable 5.8 mph - N/A   Mostly Cloudy
4:53 PM 60.1 °F - 19.0 °F 20% 30.25 in 10.0 mi NW 4.6 mph - N/A   Mostly Cloudy
5:53 PM 59.0 °F - 19.9 °F 22% 30.26 in 10.0 mi WNW 4.6 mph - N/A   Partly Cloudy
6:53 PM 59.0 °F - 21.0 °F 23% 30.27 in 10.0 mi Calm Calm - N/A   Clear
7:53 PM 53.1 °F - 28.9 °F 40% 30.28 in 10.0 mi NNW 11.5 mph - N/A   Clear
8:53 PM 46.9 °F - 28.9 °F 50% 30.30 in 10.0 mi North 3.5 mph - N/A   Clear
9:53 PM 46.9 °F - 30.9 °F 54% 30.31 in 10.0 mi North 4.6 mph - N/A   Clear
10:53 PM 41.0 °F 39.0 °F 28.0 °F 60% 30.33 in 10.0 mi SSW 3.5 mph - N/A   Clear
11:53 PM 36.0 °F - 27.0 °F 70% 30.35 in 10.0 mi Calm Calm - N/A   Clear